Main page
METAR-TAF:

METAR-TAF

Airports :

Birjand, Iran

Birjand International Airport

latitude: 32-52N, longitude: 059-12E, elevation: 1491 m

Current weather observation

The report was made 1 hour and 2 minutes ago, at 01:00 UTC
Wind 4 kt from the Southeast
Temperature 17°C
Humidity 27%
Pressure 1014 hPa
Visibility 10 km or more
no clouds below 1500 m and no cumulonimbus

METAR: OIMB 290100Z 14004KT CAVOK 17/M02 Q1014

Time: 06:32 (02:02 UTC)


TAF: missing

Weather observations and forecasts of more than 4000 airports (METAR and TAF reports).

The available stations are represented by yellow and red dots on the map.

Hover mouse over dot to see the name of the station.

Then click to see weather observations and forecasts.

To change the map : click on the green buttons with a black cross to zoom in, on the green button with a dash to zoom out, or on the green arrows for adjacent maps.


METAR-TAF: